BEIDOU-3 M1 (C19)

Last updated on Mon Jun 22 2026 00:03:30 GMT+0000 (Coordinated Universal Time)

1 43001U 17069A 26171.89173509 -.00000077 00000+0 00000+0 0 9993 2 43001 56.6960 62.9620 0010382 325.8146 34.1572 1.86231151 58676
UTC large
Height (km)
Speed (km/s)
/
Latitude / Longitude
Inclination (degrees)
Orbital Period (minutes)
Azimuth
Elevation
Range (km)
Doppler Factor

Next 0 passes for location: London (51.5072 / 0.1276)

No passes found over London.
BEIDOU-3 M1 (C19)